Location: Calgary
(51.0833°N, 114.0833°W)
Time: 23:11:14
(UTC-06:00)

ISS - Visible Passes

Search period start: 20 May 2018 00:00
Search period end: 30 May 2018 00:00
Orbit: 402 x 407 km, 51.6° (Epoch: 21 May)

Date Brightness Start Highest point End Pass type
(mag) Time Alt. Az. Time Alt. Az. Time Alt. Az.
20 May -4.0 01:21:28 36° WSW 01:22:41 89° S 01:25:57 10° E visible
20 May -3.9 02:55:57 10° W 02:59:14 87° N 03:02:30 10° E visible
20 May -3.2 04:32:32 10° W 04:35:34 35° SSW 04:38:34 10° SE visible
20 May -2.6 22:51:50 10° SSW 22:54:23 21° SE 22:56:57 10° E visible
21 May -4.0 00:27:16 10° WSW 00:30:31 73° SSE 00:33:47 10° E visible
21 May -3.8 02:03:46 10° W 02:07:03 79° N 02:10:19 10° E visible
21 May -3.7 03:40:18 10° W 03:43:29 51° SSW 03:46:40 10° SE visible
21 May -3.8 23:35:11 10° SW 23:38:23 53° SSE 23:41:35 10° E visible
22 May -3.8 01:11:33 10° W 01:14:50 79° N 01:18:06 10° E visible
22 May -4.0 02:48:06 10° W 02:51:21 70° SSW 02:54:36 10° ESE visible
22 May -2.5 04:24:57 10° W 04:27:28 20° SW 04:29:57 10° SSE visible
22 May -3.3 22:43:14 10° SW 22:46:17 37° SSE 22:49:19 10° E visible
23 May -3.9 00:19:20 10° W 00:22:37 86° N 00:25:54 10° E visible
23 May -4.0 01:55:53 10° W 01:59:10 88° S 02:02:26 10° ESE visible
23 May -3.1 03:32:30 10° W 03:35:26 30° SSW 03:38:20 10° SSE visible
23 May -4.0 23:27:08 10° WSW 23:30:24 79° SSE 23:33:41 10° E visible
24 May -3.8 01:03:40 10° W 01:06:57 81° N 01:10:11 10° E visible
24 May -3.3 02:40:12 10° W 02:42:42 38° WSW 02:42:42 38° WSW visible
24 May -3.8 22:34:59 10° WSW 22:38:13 60° SSE 22:41:27 10° E visible
25 May -3.8 00:11:25 10° W 00:14:41 78° N 00:17:58 10° E visible
25 May -4.0 01:47:57 10° W 01:51:11 63° SSW 01:51:11 63° SSW visible
25 May -3.8 23:19:09 10° W 23:22:26 83° N 23:25:43 10° E visible
26 May -4.0 00:55:42 10° W 00:58:58 82° SSW 01:00:12 35° ESE visible
26 May -1.4 02:32:23 10° W 02:32:48 13° W 02:32:48 13° W visible
26 May -3.9 22:26:54 10° WSW 22:30:11 85° SSE 22:33:28 10° E visible
27 May -3.9 00:03:26 10° W 00:06:43 84° N 00:09:23 15° E visible
27 May -2.6 01:40:00 10° W 01:41:59 29° WSW 01:41:59 29° WSW visible
27 May -3.7 23:11:09 10° W 23:14:26 79° N 23:17:43 10° E visible
28 May -3.8 00:47:41 10° W 00:50:54 56° SSW 00:51:16 52° S visible
28 May -3.7 22:18:52 10° W 22:22:08 80° N 22:25:25 10° E visible
28 May -4.0 23:55:24 10° W 23:58:40 76° SSW 00:00:35 22° ESE visible
29 May -1.7 01:32:10 10° W 01:33:12 16° WSW 01:33:12 16° WSW visible
29 May -3.9 23:03:06 10° W 23:06:23 88° NNE 23:09:39 10° E visible
